User: anonymous   Login
Location: Unspecified
(0.0000°N, 0.0000°E)
Time: 15:03:30
(UTC+00:00)
Language:

USA 247 - Orbit

View from above orbital plane
View from above orbital plane
View from above satellite
View from above satellite

Ground track
Ground track

The orbit data is extracted from the following two-line orbital elements,

1 39462U 13072A   18130.14439195 0.00000000  00000-0  00000-0 0    09
2 39462 122.9976 199.8608 0008288 136.2950 223.7049 13.41423416    01
Epoch (UTC): 10 May 2018 03:27:55
Eccentricity: 0.0008288
inclination: 122.9976°
perigee height: 1098 km
apogee height: 1110 km
right ascension of ascending node: 199.8608°
argument of perigee: 136.2950°
revolutions per day: 13.41423416
mean anomaly at epoch: 223.7049°
orbit number at epoch: 0

The dashed part of the orbit path shows where the satellite is in the earth's shadow,  

DLR